Back to catalog

STARLINK-30847

AliveCommunicationsVLEO
NORAD 58239·PAYLOAD·🇺🇸 United States

Launched Nov 8, 2023 from Cape Canaveral Space Force Station

Loading…

Next Passes (next 24 hours)

TLE

FreshSource: CelesTrak SupGP

Epoch: Sep 14, 2026, 22:15 UTC

1 58239C 23171K   26257.92756944  .00003408  00000+0  12344-3 0  2577
2 58239  43.0000 296.7053 0001504 260.0541 104.3295 15.27575737    10

Track STARLINK-30847 in real time with AllMySat

Download on the App Store